EDT,Max TemperatureF,Mean TemperatureF,Min TemperatureF,Max Dew PointF,MeanDew PointF,Min DewpointF,Max Humidity, Mean Humidity, Min Humidity, Max Sea Level PressureIn, Mean Sea Level PressureIn, Min Sea Level PressureIn, Max VisibilityMiles, Mean VisibilityMiles, Min VisibilityMiles, Max Wind SpeedMPH, Mean Wind SpeedMPH, Max Gust SpeedMPH,PrecipitationIn, CloudCover, Events, WindDirDegrees
2013-8-1,86,79,71,72,69,65,93,72,51,30.00,29.96,29.92,10,8,2,12,5,18,0.13,6,Rain,269
2013-8-2,87,76,65,67,64,54,100,66,32,30.03,30.00,29.96,10,10,6,12,3,13,0.00,5,,3
2013-8-3,84,76,68,71,68,66,93,74,55,30.03,30.01,29.96,10,10,7,13,6,17,0.00,6,,226
2013-8-4,86,78,69,72,66,56,93,65,37,30.09,30.03,29.99,10,9,5,15,6,18,T,7,,314
2013-8-5,86,74,62,64,61,49,93,60,27,30.06,30.01,29.96,10,10,9,13,4,26,T,5,,301
2013-8-6,86,78,69,70,67,64,84,70,55,30.03,29.97,29.93,10,9,2,13,5,16,0.00,7,Rain,224
2013-8-7,84,78,71,74,72,70,93,84,74,30.05,29.99,29.92,10,8,1,15,6,20,0.49,7,Rain,219
2013-8-8,83,77,70,75,71,69,93,84,74,30.04,30.00,29.96,10,9,4,14,4,16,0.03,8,Rain-Thunderstorm,264
2013-8-9,90,80,70,74,71,69,100,80,59,30.09,30.02,29.98,10,10,7,16,5,20,0.01,7,Rain-Thunderstorm,246
2013-8-10,89,80,71,74,72,70,100,82,63,30.13,30.08,30.03,10,8,2,16,4,20,0.33,5,Rain-Thunderstorm,246
2013-8-11,88,79,69,73,71,69,100,80,59,30.17,30.11,30.04,10,4,0,12,4,23,0.28,7,Fog-Rain-Thunderstorm,216
2013-8-12,85,77,69,75,71,69,100,83,65,30.12,30.05,29.97,10,10,4,14,5,17,0.04,5,Rain-Thunderstorm,231
2013-8-13,86,79,71,72,70,65,93,77,61,29.97,29.92,29.86,10,9,1,17,8,24,0.51,7,Rain,252
2013-8-14,79,72,64,66,60,55,90,69,48,30.05,29.99,29.93,10,10,9,15,9,20,0.00,5,,31
2013-8-15,83,72,61,67,59,54,79,65,51,30.08,30.04,29.99,10,10,10,14,6,16,0.01,6,Rain,13
2013-8-16,81,74,66,67,64,62,93,76,58,30.09,30.05,30.02,10,10,10,12,4,14,0.00,7,,319
2013-8-17,75,70,65,66,64,61,100,82,64,30.16,30.10,30.07,10,8,2,10,4,14,0.50,7,Rain,7
2013-8-18,80,74,67,68,66,64,100,81,62,30.21,30.14,30.09,10,7,2,17,4,21,0.24,8,Rain,185
2013-8-19,81,75,68,70,67,66,97,80,62,30.17,30.12,30.06,10,9,3,9,2,12,0.06,7,Rain,70
2013-8-20,85,76,66,71,69,66,100,82,63,30.19,30.12,30.07,10,7,0,15,2,17,0.07,6,Fog-Rain,107
2013-8-21,81,76,70,72,70,69,100,85,69,30.22,30.16,30.11,10,10,8,15,3,18,0.03,6,Rain-Thunderstorm,298
2013-8-22,88,78,68,72,69,67,100,76,51,30.19,30.14,30.02,10,8,0,9,3,13,T,6,Fog-Rain,216
2013-8-23,89,78,67,71,69,64,100,76,51,30.10,30.04,29.99,10,8,1,21,3,26,0.23,6,Rain-Thunderstorm,330
2013-8-24,87,77,66,69,65,57,100,69,37,30.23,30.16,30.07,10,5,1,13,6,16,0.00,4,,38
2013-8-25,84,74,63,65,62,59,93,68,43,30.35,30.28,30.23,10,10,7,14,3,20,0.00,2,,42
2013-8-26,85,74,62,65,62,61,93,70,47,30.31,30.23,30.13,10,10,9,9,2,14,0.00,3,,251
2013-8-27,86,76,65,69,66,63,93,74,55,30.15,30.10,30.03,10,9,7,6,1,9,0.00,6,,201
2013-8-28,88,78,68,70,68,66,97,74,50,30.06,30.02,29.97,10,8,3,10,3,13,0.00,5,,230
2013-8-29,88,81,73,74,71,70,93,75,57,30.01,29.97,29.92,10,8,4,12,5,15,T,5,Rain,223
2013-8-30,90,80,70,73,71,68,100,75,50,30.04,29.97,29.90,10,4,0,12,4,15,0.00,4,Fog,231
2013-8-31,90,80,70,74,72,66,94,73,52,29.99,29.92,29.83,10,6,2,17,7,24,0.24,6,Rain-Thunderstorm,246